South Bend International Airport (SBN)


Airport Diagram
Current Weather/Forecast (VFR Conditions)
METAR KSBN 171454Z 21008KT 10SM CLR 26/18 A3014 RMK AO2 SLP202 T02560183 53004 $
TAF KSBN 171130Z 1712/1812 VRB04KT P6SM SCT040 FM171500 22008KT P6SM FEW050 FM180600 33004KT P6SM BKN100

All Charts
General
Chart Name Download
AIRPORT DIAGRAM
TAKEOFF MINIMUMS
ALTERNATE MINIMUMS

Approaches
Chart Name Download
ILS OR LOC RWY 09R
ILS OR LOC RWY 27L
ILS RWY 27L (SA CAT I - II)
RNAV (GPS) RWY 09L
RNAV (GPS) RWY 09R
RNAV (GPS) RWY 18
RNAV (GPS) RWY 27L
RNAV (GPS) RWY 27R
RNAV (GPS) RWY 36
VOR RWY 18